Time,TemperatureF,DewpointF,PressureIn,WindDirection,WindDirectionDegrees,WindSpeedMPH,WindSpeedGustMPH,Humidity,HourlyPrecipIn,Conditions,Clouds,dailyrainin,SoftwareType,DateUTC
2013-02-27 00:01:00,37.0,27.0,28.18,SW,217,0.0,1.0,66,0.00,,,0.00,,2013-02-27 08:01:00,
2013-02-27 00:11:00,37.0,27.0,28.18,SW,217,0.0,1.0,66,0.00,,,0.00,,2013-02-27 08:11:00,
2013-02-27 00:21:00,37.0,27.0,28.18,WNW,300,0.0,1.0,68,0.00,,,0.00,,2013-02-27 08:21:00,
2013-02-27 00:31:00,37.0,27.0,28.19,SSE,153,0.0,2.0,68,0.00,,,0.00,,2013-02-27 08:31:00,
2013-02-27 00:41:00,37.0,27.0,28.19,SSE,153,0.0,2.0,68,0.00,,,0.00,,2013-02-27 08:41:00,
2013-02-27 00:52:00,37.0,27.0,28.19,SSW,210,0.0,2.0,68,0.00,,,0.00,,2013-02-27 08:52:00,
2013-02-27 01:01:00,37.0,28.0,28.20,WSW,255,0.0,2.0,69,0.00,,,0.00,,2013-02-27 09:01:00,
2013-02-27 01:11:00,37.0,28.0,28.20,WSW,255,0.0,2.0,69,0.00,,,0.00,,2013-02-27 09:11:00,
2013-02-27 01:21:00,38.0,29.0,28.20,South,183,0.0,1.0,69,0.00,,,0.00,,2013-02-27 09:21:00,
2013-02-27 01:31:00,38.0,28.0,28.20,SE,134,0.0,2.0,67,0.00,,,0.00,,2013-02-27 09:31:00,
2013-02-27 01:41:00,38.0,28.0,28.20,SE,134,0.0,2.0,67,0.00,,,0.00,,2013-02-27 09:41:00,
2013-02-27 01:52:00,36.0,27.0,28.19,SSE,157,0.0,1.0,70,0.00,,,0.00,,2013-02-27 09:52:00,
2013-02-27 02:01:00,35.0,27.0,28.18,SSE,148,0.0,1.0,72,0.00,,,0.00,,2013-02-27 10:01:00,
2013-02-27 02:12:00,35.0,27.0,28.18,SSE,148,0.0,1.0,72,0.00,,,0.00,,2013-02-27 10:12:00,
2013-02-27 02:21:00,33.0,26.0,28.18,SSE,148,0.0,0.0,75,0.00,,,0.00,,2013-02-27 10:21:00,
2013-02-27 02:31:00,33.0,26.0,28.17,WSW,243,0.0,2.0,76,0.00,,,0.00,,2013-02-27 10:31:00,
2013-02-27 02:41:00,33.0,26.0,28.17,WSW,243,0.0,2.0,76,0.00,,,0.00,,2013-02-27 10:41:00,
2013-02-27 02:52:00,33.0,26.0,28.17,SSW,205,0.0,1.0,76,0.00,,,0.00,,2013-02-27 10:52:00,
2013-02-27 03:01:00,34.0,27.0,28.18,SSW,204,0.0,1.0,76,0.00,,,0.00,,2013-02-27 11:01:00,
2013-02-27 03:11:00,34.0,27.0,28.18,SSW,204,0.0,1.0,76,0.00,,,0.00,,2013-02-27 11:11:00,
2013-02-27 03:22:00,33.0,27.0,28.18,NW,311,0.0,2.0,77,0.00,,,0.00,,2013-02-27 11:22:00,
2013-02-27 03:31:00,33.0,27.0,28.18,SSE,159,0.0,1.0,77,0.00,,,0.00,,2013-02-27 11:31:00,
2013-02-27 03:41:00,33.0,27.0,28.18,SSE,159,0.0,1.0,77,0.00,,,0.00,,2013-02-27 11:41:00,
2013-02-27 03:52:00,33.0,27.0,28.18,SW,218,0.0,2.0,77,0.00,,,0.00,,2013-02-27 11:52:00,
2013-02-27 04:01:00,32.0,26.0,28.18,SSW,207,0.0,1.0,78,0.00,,,0.00,,2013-02-27 12:01:00,
2013-02-27 04:12:00,32.0,26.0,28.18,SSW,207,0.0,1.0,78,0.00,,,0.00,,2013-02-27 12:12:00,
2013-02-27 04:22:00,32.0,26.0,28.18,South,186,0.0,1.0,78,0.00,,,0.00,,2013-02-27 12:22:00,
2013-02-27 04:32:00,33.0,27.0,28.19,SW,221,0.0,1.0,79,0.00,,,0.00,,2013-02-27 12:32:00,
2013-02-27 04:41:00,33.0,27.0,28.19,SW,221,0.0,1.0,79,0.00,,,0.00,,2013-02-27 12:41:00,
2013-02-27 04:52:00,32.0,26.0,28.19,SW,217,0.0,1.0,79,0.00,,,0.00,,2013-02-27 12:52:00,
2013-02-27 05:02:00,32.0,27.0,28.19,SW,225,0.0,2.0,80,0.00,,,0.00,,2013-02-27 13:02:00,
2013-02-27 05:11:00,32.0,27.0,28.19,SW,225,0.0,2.0,80,0.00,,,0.00,,2013-02-27 13:11:00,
2013-02-27 05:21:00,32.0,27.0,28.20,SE,144,0.0,2.0,80,0.00,,,0.00,,2013-02-27 13:21:00,
2013-02-27 05:31:00,31.0,26.0,28.20,SSW,205,0.0,1.0,80,0.00,,,0.00,,2013-02-27 13:31:00,
2013-02-27 05:41:00,31.0,26.0,28.20,SSW,205,0.0,1.0,80,0.00,,,0.00,,2013-02-27 13:41:00,
2013-02-27 05:52:00,31.0,26.0,28.21,South,174,0.0,1.0,82,0.00,,,0.00,,2013-02-27 13:52:00,
2013-02-27 06:01:00,30.0,25.0,28.22,SSE,164,0.0,1.0,82,0.00,,,0.00,,2013-02-27 14:01:00,
2013-02-27 06:11:00,30.0,25.0,28.22,SSE,164,0.0,1.0,82,0.00,,,0.00,,2013-02-27 14:11:00,
2013-02-27 06:21:00,30.0,26.0,28.22,WSW,248,0.0,1.0,84,0.00,,,0.00,,2013-02-27 14:21:00,
2013-02-27 06:31:00,31.0,26.0,28.23,SE,124,0.0,1.0,82,0.00,,,0.00,,2013-02-27 14:31:00,
2013-02-27 06:41:00,31.0,26.0,28.23,SE,124,0.0,1.0,82,0.00,,,0.00,,2013-02-27 14:41:00,
2013-02-27 06:52:00,31.0,26.0,28.23,SSE,158,0.0,1.0,82,0.00,,,0.00,,2013-02-27 14:52:00,
2013-02-27 07:01:00,30.0,25.0,28.23,SW,219,0.0,1.0,83,0.00,,,0.00,,2013-02-27 15:01:00,
2013-02-27 07:11:00,30.0,25.0,28.23,SW,219,0.0,1.0,83,0.00,,,0.00,,2013-02-27 15:11:00,
2013-02-27 07:21:00,30.0,25.0,28.23,SW,219,0.0,1.0,83,0.00,,,0.00,,2013-02-27 15:21:00,
2013-02-27 07:31:00,30.0,26.0,28.24,SW,214,0.0,1.0,84,0.00,,,0.00,,2013-02-27 15:31:00,
2013-02-27 07:41:00,30.0,26.0,28.24,SW,214,0.0,1.0,84,0.00,,,0.00,,2013-02-27 15:41:00,
2013-02-27 07:51:00,30.0,26.0,28.24,SW,214,0.0,1.0,84,0.00,,,0.00,,2013-02-27 15:51:00,
2013-02-27 08:01:00,30.0,26.0,28.25,WSW,250,0.0,1.0,85,0.00,,,0.00,,2013-02-27 16:01:00,
2013-02-27 08:11:00,30.0,26.0,28.25,WSW,250,0.0,1.0,85,0.00,,,0.00,,2013-02-27 16:11:00,
2013-02-27 08:21:00,32.0,27.0,28.25,SW,232,0.0,1.0,83,0.00,,,0.00,,2013-02-27 16:21:00,
2013-02-27 08:32:00,32.0,27.0,28.26,WSW,240,0.0,1.0,82,0.00,,,0.00,,2013-02-27 16:32:00,
2013-02-27 08:42:00,32.0,27.0,28.26,WSW,240,0.0,1.0,82,0.00,,,0.00,,2013-02-27 16:42:00,
2013-02-27 08:52:00,34.0,28.0,28.26,ESE,108,1.0,2.0,80,0.00,,,0.00,,2013-02-27 16:52:00,
2013-02-27 09:01:00,33.0,28.0,28.27,East,101,0.0,2.0,82,0.00,,,0.00,,2013-02-27 17:01:00,
2013-02-27 09:11:00,33.0,28.0,28.27,East,101,0.0,2.0,82,0.00,,,0.00,,2013-02-27 17:11:00,
2013-02-27 09:21:00,35.0,29.0,28.26,ESE,102,0.0,1.0,79,0.00,,,0.00,,2013-02-27 17:21:00,
2013-02-27 09:32:00,35.0,29.0,28.28,East,100,0.0,1.0,77,0.00,,,0.00,,2013-02-27 17:32:00,
2013-02-27 09:41:00,35.0,29.0,28.28,East,100,0.0,1.0,77,0.00,,,0.00,,2013-02-27 17:41:00,
2013-02-27 09:52:00,37.0,30.0,28.26,NNE,20,0.0,1.0,76,0.00,,,0.00,,2013-02-27 17:52:00,
2013-02-27 10:01:00,37.0,30.0,28.28,North,354,0.0,1.0,75,0.00,,,0.00,,2013-02-27 18:01:00,
2013-02-27 10:11:00,37.0,30.0,28.28,North,354,0.0,1.0,75,0.00,,,0.00,,2013-02-27 18:11:00,
2013-02-27 10:21:00,40.0,32.0,28.26,SE,143,1.0,2.0,72,0.00,,,0.00,,2013-02-27 18:21:00,
2013-02-27 10:31:00,40.0,31.0,28.27,ESE,119,0.0,2.0,70,0.00,,,0.00,,2013-02-27 18:31:00,
2013-02-27 10:42:00,40.0,31.0,28.27,ESE,119,0.0,2.0,70,0.00,,,0.00,,2013-02-27 18:42:00,
2013-02-27 10:51:00,42.0,32.0,28.25,North,349,1.0,2.0,68,0.00,,,0.00,,2013-02-27 18:51:00,
2013-02-27 11:01:00,42.0,31.0,28.26,NNE,16,0.0,2.0,66,0.00,,,0.00,,2013-02-27 19:01:00,
2013-02-27 11:11:00,42.0,31.0,28.26,NNE,16,0.0,2.0,66,0.00,,,0.00,,2013-02-27 19:11:00,
2013-02-27 11:21:00,44.0,33.0,28.25,SE,134,1.0,2.0,65,0.00,,,0.00,,2013-02-27 19:21:00,
2013-02-27 11:32:00,44.0,32.0,28.26,East,91,0.0,3.0,62,0.00,,,0.00,,2013-02-27 19:32:00,
2013-02-27 11:42:00,44.0,32.0,28.26,East,91,0.0,3.0,62,0.00,,,0.00,,2013-02-27 19:42:00,
2013-02-27 11:51:00,45.0,32.0,28.25,ENE,71,0.0,3.0,61,0.00,,,0.00,,2013-02-27 19:51:00,
2013-02-27 12:01:00,45.0,32.0,28.26,NE,42,0.0,3.0,60,0.00,,,0.00,,2013-02-27 20:01:00,
2013-02-27 12:11:00,45.0,32.0,28.26,NE,42,0.0,3.0,60,0.00,,,0.00,,2013-02-27 20:11:00,
2013-02-27 12:21:00,47.0,33.0,28.25,ESE,118,0.0,3.0,57,0.00,,,0.00,,2013-02-27 20:21:00,
2013-02-27 12:31:00,48.0,33.0,28.25,East,91,0.0,2.0,55,0.00,,,0.00,,2013-02-27 20:31:00,
2013-02-27 12:41:00,48.0,33.0,28.25,East,91,0.0,2.0,55,0.00,,,0.00,,2013-02-27 20:41:00,
2013-02-27 12:52:00,49.0,31.0,28.25,SSW,210,0.0,2.0,49,0.00,,,0.00,,2013-02-27 20:52:00,
2013-02-27 13:01:00,50.0,31.0,28.25,North,349,0.0,3.0,48,0.00,,,0.00,,2013-02-27 21:01:00,
2013-02-27 13:11:00,50.0,31.0,28.25,North,349,0.0,3.0,48,0.00,,,0.00,,2013-02-27 21:11:00,
2013-02-27 13:21:00,51.0,31.0,28.24,NNW,329,0.0,2.0,46,0.00,,,0.00,,2013-02-27 21:21:00,
2013-02-27 13:31:00,52.0,31.0,28.23,SE,126,1.0,4.0,45,0.00,,,0.00,,2013-02-27 21:31:00,
2013-02-27 13:42:00,52.0,31.0,28.23,SE,126,1.0,4.0,45,0.00,,,0.00,,2013-02-27 21:42:00,
2013-02-27 13:51:00,52.0,30.0,28.23,ESE,109,4.0,6.0,43,0.00,,,0.00,,2013-02-27 21:51:00,
2013-02-27 14:01:00,52.0,31.0,28.22,East,82,0.0,6.0,45,0.00,,,0.00,,2013-02-27 22:01:00,
2013-02-27 14:11:00,52.0,31.0,28.22,East,82,0.0,6.0,45,0.00,,,0.00,,2013-02-27 22:11:00,
2013-02-27 14:21:00,52.0,31.0,28.22,NNW,327,1.0,5.0,44,0.00,,,0.00,,2013-02-27 22:21:00,
2013-02-27 14:31:00,52.0,31.0,28.22,East,94,1.0,3.0,45,0.00,,,0.00,,2013-02-27 22:31:00,
2013-02-27 14:41:00,52.0,31.0,28.22,East,94,1.0,3.0,45,0.00,,,0.00,,2013-02-27 22:41:00,
2013-02-27 14:51:00,53.0,32.0,28.22,ESE,109,1.0,4.0,45,0.00,,,0.00,,2013-02-27 22:51:00,
2013-02-27 15:01:00,53.0,31.0,28.21,East,96,1.0,4.0,43,0.00,,,0.00,,2013-02-27 23:01:00,
2013-02-27 15:11:00,53.0,31.0,28.21,East,96,1.0,4.0,43,0.00,,,0.00,,2013-02-27 23:11:00,
2013-02-27 15:21:00,53.0,32.0,28.21,ENE,77,0.0,3.0,44,0.00,,,0.00,,2013-02-27 23:21:00,
2013-02-27 15:31:00,53.0,32.0,28.21,East,88,1.0,3.0,45,0.00,,,0.00,,2013-02-27 23:31:00,
2013-02-27 15:42:00,53.0,32.0,28.21,East,88,1.0,3.0,45,0.00,,,0.00,,2013-02-27 23:42:00,
2013-02-27 15:52:00,54.0,33.0,28.20,SE,139,1.0,3.0,45,0.00,,,0.00,,2013-02-27 23:52:00,
2013-02-27 16:01:00,55.0,33.0,28.20,ESE,120,0.0,2.0,44,0.00,,,0.00,,2013-02-28 00:01:00,
2013-02-27 16:11:00,55.0,33.0,28.20,ESE,120,0.0,2.0,44,0.00,,,0.00,,2013-02-28 00:11:00,
2013-02-27 16:21:00,55.0,33.0,28.20,ESE,120,0.0,2.0,44,0.00,,,0.00,,2013-02-28 00:21:00,
2013-02-27 16:32:00,53.0,32.0,28.21,SSE,155,0.0,1.0,45,0.00,,,0.00,,2013-02-28 00:32:00,
2013-02-27 16:42:00,53.0,32.0,28.21,SSE,155,0.0,1.0,45,0.00,,,0.00,,2013-02-28 00:42:00,
2013-02-27 16:52:00,53.0,33.0,28.21,South,191,0.0,3.0,47,0.00,,,0.00,,2013-02-28 00:52:00,
2013-02-27 17:01:00,53.0,33.0,28.21,SW,231,0.0,2.0,46,0.00,,,0.00,,2013-02-28 01:01:00,
2013-02-27 17:11:00,53.0,33.0,28.21,SW,231,0.0,2.0,46,0.00,,,0.00,,2013-02-28 01:11:00,
2013-02-27 17:21:00,51.0,32.0,28.21,SW,232,0.0,2.0,48,0.00,,,0.00,,2013-02-28 01:21:00,
2013-02-27 17:31:00,51.0,33.0,28.20,SW,235,0.0,2.0,50,0.00,,,0.00,,2013-02-28 01:31:00,
2013-02-27 17:41:00,51.0,33.0,28.20,SW,235,0.0,2.0,50,0.00,,,0.00,,2013-02-28 01:41:00,
2013-02-27 17:51:00,50.0,33.0,28.20,SSE,167,0.0,2.0,51,0.00,,,0.00,,2013-02-28 01:51:00,
2013-02-27 18:01:00,49.0,32.0,28.20,SSW,203,0.0,1.0,52,0.00,,,0.00,,2013-02-28 02:01:00,
2013-02-27 18:11:00,49.0,32.0,28.20,SSW,203,0.0,1.0,52,0.00,,,0.00,,2013-02-28 02:11:00,
2013-02-27 18:21:00,48.0,32.0,28.20,SSW,203,0.0,1.0,53,0.00,,,0.00,,2013-02-28 02:21:00,
2013-02-27 18:31:00,47.0,31.0,28.20,East,101,0.0,1.0,54,0.00,,,0.00,,2013-02-28 02:31:00,
2013-02-27 18:41:00,47.0,31.0,28.20,East,101,0.0,1.0,54,0.00,,,0.00,,2013-02-28 02:41:00,
2013-02-27 18:51:00,47.0,31.0,28.20,East,101,0.0,1.0,54,0.00,,,0.00,,2013-02-28 02:51:00,
2013-02-27 19:01:00,46.0,32.0,28.20,South,187,0.0,1.0,58,0.00,,,0.00,,2013-02-28 03:01:00,
2013-02-27 19:11:00,46.0,32.0,28.20,South,187,0.0,1.0,58,0.00,,,0.00,,2013-02-28 03:11:00,
2013-02-27 19:21:00,46.0,32.0,28.19,WSW,238,0.0,2.0,59,0.00,,,0.00,,2013-02-28 03:21:00,
2013-02-27 19:31:00,45.0,32.0,28.20,SE,146,0.0,1.0,61,0.00,,,0.00,,2013-02-28 03:31:00,
2013-02-27 19:41:00,45.0,32.0,28.20,SE,146,0.0,1.0,61,0.00,,,0.00,,2013-02-28 03:41:00,
2013-02-27 19:51:00,45.0,33.0,28.19,SSW,205,0.0,0.0,62,0.00,,,0.00,,2013-02-28 03:51:00,
2013-02-27 20:01:00,44.0,33.0,28.20,SSW,205,0.0,1.0,64,0.00,,,0.00,,2013-02-28 04:01:00,
2013-02-27 20:11:00,44.0,33.0,28.20,SSW,205,0.0,1.0,64,0.00,,,0.00,,2013-02-28 04:11:00,
2013-02-27 20:21:00,45.0,34.0,28.18,SSE,155,0.0,1.0,64,0.00,,,0.00,,2013-02-28 04:21:00,
2013-02-27 20:31:00,44.0,33.0,28.21,SSW,192,0.0,2.0,65,0.00,,,0.00,,2013-02-28 04:31:00,
2013-02-27 20:41:00,44.0,33.0,28.21,SSW,192,0.0,2.0,65,0.00,,,0.00,,2013-02-28 04:41:00,
2013-02-27 20:51:00,44.0,33.0,28.22,SW,215,0.0,1.0,65,0.00,,,0.00,,2013-02-28 04:51:00,
2013-02-27 21:01:00,45.0,33.0,28.21,SSW,198,0.0,3.0,63,0.00,,,0.00,,2013-02-28 05:01:00,
2013-02-27 21:11:00,45.0,33.0,28.21,SSW,198,0.0,3.0,63,0.00,,,0.00,,2013-02-28 05:11:00,
2013-02-27 21:22:00,45.0,32.0,28.21,NW,304,2.0,5.0,60,0.00,,,0.00,,2013-02-28 05:22:00,
2013-02-27 21:31:00,45.0,32.0,28.21,WNW,289,1.0,6.0,60,0.00,,,0.00,,2013-02-28 05:31:00,
2013-02-27 21:42:00,45.0,32.0,28.21,WNW,289,1.0,6.0,60,0.00,,,0.00,,2013-02-28 05:42:00,
2013-02-27 21:52:00,45.0,32.0,28.21,SW,218,2.0,7.0,59,0.00,,,0.00,,2013-02-28 05:52:00,
2013-02-27 22:01:00,44.0,32.0,28.21,SW,235,2.0,4.0,62,0.00,,,0.00,,2013-02-28 06:01:00,
2013-02-27 22:11:00,44.0,32.0,28.21,SW,235,2.0,4.0,62,0.00,,,0.00,,2013-02-28 06:11:00,
2013-02-27 22:21:00,44.0,32.0,28.22,West,264,1.0,5.0,62,0.00,,,0.00,,2013-02-28 06:21:00,
2013-02-27 22:32:00,42.0,31.0,28.21,SSW,212,1.0,3.0,66,0.00,,,0.00,,2013-02-28 06:32:00,
2013-02-27 22:41:00,42.0,31.0,28.21,SSW,212,1.0,3.0,66,0.00,,,0.00,,2013-02-28 06:41:00,
2013-02-27 22:51:00,41.0,31.0,28.22,West,280,1.0,4.0,67,0.00,,,0.00,,2013-02-28 06:51:00,
2013-02-27 23:01:00,41.0,31.0,28.22,NW,310,1.0,6.0,68,0.00,,,0.00,,2013-02-28 07:01:00,
2013-02-27 23:11:00,41.0,31.0,28.22,NW,310,1.0,6.0,68,0.00,,,0.00,,2013-02-28 07:11:00,
2013-02-27 23:21:00,41.0,32.0,28.22,WSW,253,1.0,2.0,69,0.00,,,0.00,,2013-02-28 07:21:00,
2013-02-27 23:31:00,41.0,32.0,28.23,WSW,240,0.0,2.0,70,0.00,,,0.00,,2013-02-28 07:31:00,
2013-02-27 23:41:00,41.0,32.0,28.23,WSW,240,0.0,2.0,70,0.00,,,0.00,,2013-02-28 07:41:00,
2013-02-27 23:51:00,43.0,33.0,28.22,WNW,303,3.0,7.0,67,0.00,,,0.00,,2013-02-28 07:51:00,